Regional Weather Roundup
Issued by NWS

Home | Current Version | Previous Version | Text Only | Print | Product List | Glossary On
Versions: 1 2 3 4 5 6 7 8 9 10 11 12 13 14 15 16 17 18 19 20 21 22 23 24 25 26 27 28 29 30 31 32 33 34 35 36 37 38 39 40 41 42 43 44 45 46 47 48 49 50
000
ASUS43 KTOP 310108
RWRKS

WEATHER ROUNDUP FOR KANSAS
NATIONAL WEATHER SERVICE GOODLAND KS
800 PM CDT TUE AUG 30 2016

NOTE:  "FAIR" INDICATES FEW OR NO CLOUDS BELOW 12,000 FEET WITH NO
SIGNIFICANT WEATHER AND/OR OBSTRUCTIONS TO VISIBILITY.

KSZ001>006-013>018-027>032-041>047-310200-
NORTHWEST KANSAS

CITY           SKY/WX    TMP DP  RH WIND       PRES   REMARKS
GOODLAND       CLOUDY    69  64  84 N13G20    30.22R THUNDER
HAYS           CLOUDY    72  61  68 NE8       30.17R
HILL CITY      CLOUDY    75  67  76 E7        30.18R
RUSSELL        CLOUDY    70  67  90 N3        30.15R
$$

KSZ061>065-074>080-084>089-310200-
SOUTHWEST KANSAS

CITY           SKY/WX    TMP DP  RH WIND       PRES   REMARKS
DODGE CITY     CLOUDY    71  67  87 CALM      30.17S
ELKHART          N/A     70  61  73 S2          N/A
GARDEN CITY    CLOUDY    73  66  78 E6        30.17F
GREAT BEND     CLOUDY    70  63  78 NE5       30.15R
LIBERAL        PTCLDY    70  61  73 SW6       30.19S
PRATT          MOCLDY    71  66  85 NE13      30.15R
$$

KSZ066>073-081>083-090>101-310200-
SOUTHEAST KANSAS

CITY           SKY/WX    TMP DP  RH WIND       PRES   REMARKS
CHANUTE        PTCLDY    80  70  71 NE13G22   30.07R
COFFEYVILLE    MOCLDY    82  68  62 E7        30.04R
HUTCHINSON     LGT RAIN  72  69  90 CALM      30.16R FOG
MEDICINE LODGE   N/A     76  69  79 N7        30.10R
NEWTON         LGT RAIN  70  69  97 N6        30.17R
PARSONS        MOCLDY    80  71  74 MISG      30.06R
WICHITA INTL   CLOUDY    73  68  84 N13       30.12R
WICHITA JABRA  CLOUDY    71  70  96 N12       30.12R
WICHITA MCCONL CLOUDY    74  67  78 N17       30.12R
WINFIELD       CLOUDY    86  69  56 NE6       30.07R
$$

KSZ007>012-019>026-033>040-048>060-102>105-310200-
NORTHEAST KANSAS

CITY           SKY/WX    TMP DP  RH WIND       PRES   REMARKS
CONCORDIA      LGT RAIN  71  69  93 CALM      30.15R
EMPORIA        LGT RAIN  76  74  93 N6        30.11R
LAWRENCE       CLOUDY    76  74  93 N3        30.09R
MANHATTAN      LGT RAIN  76  73  91 CALM      30.12R
MARYSVILLE     LGT RAIN  73  72  94 CALM      30.13R
OLATHE IND     CLOUDY    77  69  76 SE13      30.12R
OLATHE EXE     CLOUDY    73  69  87 SE10      30.11R
SALINA         CLOUDY    73  71  93 CALM      30.15R
TOPEKA BILLARD CLOUDY    78  73  84 N6        30.10R
TOPEKA FORBES  MOCLDY    81  73  76 N6        30.11R
$$




USA.gov is the U.S. government's official web portal to all federal, state and local government web resources and services.